Location: Newark
(37.8333°N, 119.5000°W)
Time: 17:31:57
(UTC+00:00)

Courier 1B Rocket - All Passes

Search period start: 24 August 2019 00:00
Search period end: 03 September 2019 00:00
Orbit: 920 x 1202 km, 28.3° (Epoch: 24 August)

Date Brightness Start Highest point End Pass type
(mag) Time Alt. Az. Time Alt. Az. Time Alt. Az.
24 Aug - 09:20:32 10° SSW 09:25:43 22° SSE 09:31:09 10° ESE visible
24 Aug - 11:11:56 10° SW 11:18:35 37° S 11:25:33 10° ESE visible
24 Aug - 13:04:48 10° WSW 13:11:45 39° S 13:18:54 10° ESE daylight
24 Aug - 14:58:40 10° WSW 15:04:50 26° SSW 15:11:00 10° SSE daylight
25 Aug - 08:20:57 10° S 08:24:54 16° SSE 08:28:59 10° ESE night (unlit)
25 Aug - 10:11:20 10° SW 10:17:35 33° SSE 10:24:09 10° ESE visible
25 Aug - 12:03:49 10° WSW 12:10:39 41° S 12:17:48 10° ESE visible
25 Aug - 13:57:15 10° WSW 14:03:48 31° SSW 14:10:28 10° SE daylight
25 Aug - 15:52:39 10° WSW 15:56:38 15° SSW 16:00:38 10° S daylight
26 Aug - 07:23:16 10° SSE 07:24:10 10° SSE 07:25:03 10° SE night (unlit)
26 Aug - 09:10:58 10° SW 09:16:38 27° SSE 09:22:38 10° ESE visible
26 Aug - 11:02:57 10° WSW 11:09:35 40° S 11:16:35 10° ESE visible
26 Aug - 12:56:03 10° WSW 13:02:44 35° S 13:09:39 10° SE visible
26 Aug - 14:50:25 10° WSW 14:55:42 20° SSW 15:01:02 10° SSE daylight
27 Aug - 08:10:56 10° SSW 08:15:48 21° SSE 08:20:54 10° ESE night (unlit)
27 Aug - 10:02:15 10° SW 10:08:34 36° S 10:15:17 10° ESE visible
27 Aug - 11:55:01 10° WSW 12:01:40 38° S 12:08:40 10° ESE visible
27 Aug - 13:48:45 10° WSW 13:54:42 25° SSW 14:00:49 10° SSE daylight
28 Aug - 07:11:28 10° S 07:15:03 15° SSE 07:18:43 10° ESE night (unlit)
28 Aug - 09:01:44 10° SW 09:07:38 32° SSE 09:13:54 10° ESE visible
28 Aug - 10:54:05 10° WSW 11:00:37 39° S 11:07:32 10° ESE visible
28 Aug - 12:47:26 10° WSW 12:53:42 30° SSW 13:00:13 10° SE visible
28 Aug - 14:42:47 10° WSW 14:46:32 14° SSW 14:50:21 10° S daylight
29 Aug - 08:01:25 10° SW 08:06:46 26° SSE 08:12:24 10° ESE night (unlit)
29 Aug - 09:53:19 10° WSW 09:59:37 38° S 10:06:20 10° ESE visible
29 Aug - 11:46:19 10° WSW 11:52:41 34° S 11:59:23 10° SE visible
29 Aug - 13:40:36 10° WSW 13:45:36 19° SSW 13:50:45 10° SSE daylight
30 Aug - 07:01:25 10° SSW 07:05:59 20° SSE 07:10:43 10° ESE night (unlit)
30 Aug - 08:52:40 10° SW 08:58:40 35° S 09:05:03 10° ESE visible
30 Aug - 10:45:21 10° WSW 10:51:40 37° S 10:58:23 10° ESE visible
30 Aug - 12:39:01 10° WSW 12:44:38 24° SSW 12:50:30 10° SSE visible
31 Aug - 06:02:00 10° S 06:05:15 14° SSE 06:08:36 10° ESE night (unlit)
31 Aug - 07:52:12 10° SW 07:57:47 31° SSE 08:03:43 10° ESE night (unlit)
31 Aug - 09:44:30 10° WSW 09:50:41 38° S 09:57:16 10° ESE visible
31 Aug - 11:37:45 10° WSW 11:43:40 29° SSW 11:49:55 10° SE visible
31 Aug - 13:33:10 10° SW 13:36:29 13° SSW 13:39:53 10° S daylight
01 Sep - 06:51:54 10° SW 06:56:58 25° SSE 07:02:17 10° ESE night (unlit)
01 Sep - 08:43:47 10° WSW 08:49:45 37° S 08:56:06 10° ESE night (unlit)
01 Sep - 10:36:42 10° WSW 10:42:43 33° S 10:49:05 10° SE visible
01 Sep - 12:30:57 10° WSW 12:35:35 18° SSW 12:40:22 10° SSE visible
02 Sep - 05:51:54 10° SSW 05:56:14 19° SSE 06:00:41 10° ESE night (unlit)
02 Sep - 07:43:09 10° SW 07:48:52 34° S 07:54:54 10° ESE night (unlit)
02 Sep - 09:35:48 10° WSW 09:41:46 35° S 09:48:08 10° ESE visible
02 Sep - 11:29:25 10° WSW 11:34:39 23° SSW 11:40:09 10° SSE visible
